Zurück zum Katalog

ARIANE 42P+ DEB

LostHEO
NORAD 34189·DEBRIS·🇫🇷 France

Gestartet Oct 28, 1992 von Guiana Space Centre

Loading…

Nächste Überflüge (nächste 24 Stunden)

TLE

VeraltetSource: Space-Track

Epoche: Jul 25, 2025, 05:42 UTC

1 34189U 92072V   25206.23763769 -.00000279  00000-0 -52857-2 0  9992
2 34189   3.4825  83.5020 6530763 284.9297 309.2276  2.91558283139441

Verfolge ARIANE 42P+ DEB in Echtzeit mit AllMySat

Download on the App Store